Winnemucca, NV

11:28 AM PDT on August 23, 2017 (GMT -0700)
Winnemucca Municipal

Weather History for KWMC - August, 2013

Change the Weather History Date:

Tuesday, August 27, 2013

  Actual Average Record
Temperature  
Mean Temperature 69 °F 67 °F  
Max Temperature 91 °F 88 °F 102 °F (1924)
Min Temperature 46 °F 46 °F 30 °F (1954)
Degree Days  
Heating Degree Days 0 1  
Month to date heating degree days 0 11  
Since 1 June heating degree days 70 126  
Since 1 July heating degree days 0 21  
Cooling Degree Days 4 3  
Month to date cooling degree days 155 164  
Year to date cooling degree days 657 497  
Since 1 June cooling degree days 656 486  
Growing Degree Days 18 (Base 50)    
Moisture  
Dew Point 38 °F    
Average Humidity 31    
Maximum Humidity 49    
Minimum Humidity 13    
Precipitation  
Precipitation 0.02 in 0.01 in 0.41 in (1904)
Month to date precipitation 0.15 0.15  
Year to date precipitation 2.41 5.33  
Snow  
Snow 0.00 in 0.00 in 0.00 in (1877)
Month to date snowfall 0.0 0.0  
Since 1 June snowfall T T  
Since 1 July snowfall T 0.0  
Snow Depth 0.00 in    
Sea Level Pressure  
Sea Level Pressure 29.87 in    
Wind  
Wind Speed 6 mph (SSE)    
Max Wind Speed 32 mph    
Max Gust Speed 44 mph    
Visibility 9 miles    
Events Rain , Thunderstorm    
T = Trace of Precipitation, MM = Missing Value Source: NWS Daily Summary

Daily Weather History Graph

Daily Weather History Graph

Search for Another Location

Airport or City:

Trip Planner

Search our weather history database for the weather conditions in past years. The results will help you decide how hot, cold, wet, or windy it might be!

Date:

Astronomy

Aug. 27, 2013 Rise Set
Actual Time 6:13 AM PDT 7:31 PM PDT
Civil Twilight 5:44 AM PDT 7:59 PM PDT
Nautical Twilight 5:10 AM PDT 8:33 PM PDT
Astronomical Twilight 4:34 AM PDT 9:09 PM PDT
Moon 11:24 PM PDT (8/27) 1:18 PM PDT (8/27)
Length of Visible Light 14h 14m
Length of Day
13h 17m
Waning Gibbous, 56% of the Moon is Illuminated
Aug 27
Waning Gibbous
Aug 28
Last Quarter
Sep 5
New
Sep 12
First Quarter
Sep 19
Full

Hourly Weather History & Observations

Time (PDT) Temp. Windchill Dew Point Humidity Pressure Visibility Wind Dir Wind Speed Gust Speed Precip Events Conditions
12:56 AM 53.1 °F - 28.9 °F 40% 29.92 in 7.0 mi SE 5.8 mph - N/A   Partly Cloudy
1:56 AM 50.0 °F - 28.0 °F 43% 29.92 in 7.0 mi SSE 4.6 mph - N/A   Clear
2:56 AM 50.0 °F - 28.9 °F 44% 29.92 in 7.0 mi SE 3.5 mph - N/A   Clear
3:56 AM 48.0 °F - 28.0 °F 46% 29.93 in 7.0 mi South 4.6 mph - N/A   Clear
4:56 AM 46.0 °F 43.1 °F 28.9 °F 51% 29.93 in 7.0 mi SE 5.8 mph - N/A   Clear
5:56 AM 46.9 °F - 28.9 °F 50% 29.94 in 7.0 mi SE 6.9 mph - N/A   Clear
6:56 AM 51.1 °F - 30.0 °F 44% 29.94 in 6.0 mi ENE 3.5 mph - N/A   Haze
7:56 AM 57.9 °F - 30.9 °F 36% 29.95 in 6.0 mi Calm Calm - N/A   Haze
8:56 AM 66.9 °F - 32.0 °F 27% 29.94 in 6.0 mi SE 3.5 mph - N/A   Haze
9:56 AM 75.0 °F - 32.0 °F 21% 29.93 in 7.0 mi Calm Calm - N/A   Clear
10:56 AM 80.1 °F - 32.0 °F 17% 29.90 in 10.0 mi Variable 3.5 mph - N/A   Clear
11:56 AM 82.9 °F - 37.0 °F 19% 29.88 in 10.0 mi WSW 8.1 mph - N/A   Clear
12:56 PM 84.9 °F - 37.9 °F 19% 29.86 in 10.0 mi Variable 5.8 mph - N/A   Clear
1:56 PM 89.1 °F - 39.9 °F 18% 29.84 in 10.0 mi West 8.1 mph 16.1 mph N/A   Clear
2:56 PM 90.0 °F - 41.0 °F 18% 29.81 in 10.0 mi WSW 10.4 mph - N/A   Scattered Clouds
3:56 PM 88.0 °F - 36.0 °F 16% 29.79 in 10.0 mi West 4.6 mph - N/A   Clear
4:56 PM 90.0 °F - 32.0 °F 13% 29.77 in 10.0 mi West 3.5 mph - N/A   Clear
5:56 PM 89.1 °F - 35.1 °F 15% 29.75 in 10.0 mi SW 12.7 mph 20.7 mph N/A   Clear
6:56 PM 86.0 °F - 37.0 °F 18% 29.74 in 10.0 mi West 6.9 mph - N/A   Mostly Cloudy
7:56 PM 79.0 °F - 42.1 °F 27% 29.78 in 10.0 mi ENE 11.5 mph 20.7 mph 0.00 in   Partly Cloudy
8:56 PM 68.0 °F - 53.1 °F 59% 29.88 in 10.0 mi South 15.0 mph 32.2 mph 0.00 in Rain Light Rain
9:56 PM 71.1 °F - 51.1 °F 49% 29.82 in 10.0 mi ENE 3.5 mph - 0.00 in   Mostly Cloudy
10:56 PM 66.0 °F - 54.0 °F 65% 29.83 in 10.0 mi SSW 3.5 mph - 0.01 in Rain Light Rain
11:18 PM 66.2 °F - 55.4 °F 68% 29.98 in 10.0 mi SE 12.7 mph - 0.00 in Rain , Thunderstorm Light Thunderstorms and Rain
11:35 PM 62.6 °F - 57.2 °F 82% 30.00 in 10.0 mi SE 19.6 mph 27.6 mph 0.01 in Rain , Thunderstorm Light Thunderstorms and Rain
11:56 PM 64.9 °F - 55.0 °F 70% 29.85 in 10.0 mi ESE 13.8 mph 24.2 mph 0.01 in   Scattered Clouds